sat.trackr.live / text

‹ back to catalog

HAWK-5B

NORAD 52756 · 2022-057AA

PAYLOAD ACTIVE UNKNOWN

§ Identity

Operator
Country
US
Launch date
2022-05-25
Launch site
AFETR
Launch vehicle
Mass (kg)
RCS (m²)

Purposes: tech_demo

External: N2YO · Heavens-Above · Gunter

§ Orbital elements

Epoch: 2026-09-19T21:28:43.243680Z

Period
92.64 min
Inclination
97.6701°
Eccentricity
0.0005361
Mean motion
15.54427368 rev/d
Perigee alt
400.2 km
Apogee alt
407.5 km
Semi-major
6,782.0 km
B*
2.2336e-4
RAAN
67.3224°
Arg perigee
81.3789°
Mean anomaly
278.8071°
Rev number
24,104

§ Raw data

HAWK-5B1 52756U 22057AA  26262.89494495  .00014572  00000+0  22336-3 0  99982 52756  97.6701  67.3224 0005361  81.3789 278.8071 15.54427368241041

JSON: /api/v1/satellites/52756 · /tle

For live sub-satellite position, see the globe view (requires WebGL).

§ Visibility from observer

Set your observer location to see the next 7 days of passes ≥ 10°. The values pass through the URL so the page stays shareable.

No JS? Fill the form by hand. The geolocation button needs JavaScript.